Location: Rounton
(54.4000°N, 1.3500°W)
Time: 14:08:03
(UTC+00:00)

Transit 2A Rocket - Pass Details

Date: 06 December 2021
Orbit: 584 x 918 km, 66.7° (Epoch: 17 January)

Event Time Altitude Azimuth Distance (km) Brightness Sun altitude
Rises 10:04:22 0° 266° (W) 3,464 8.2 9.4°
Reaches altitude 10° 10:07:06 10° 277° (W) 2,563 7.4 9.5°
Maximum altitude 10:12:27 32° 339° (NNW) 1,518 6.1 9.9°
Drops below altitude 10° 10:17:56 10° 42° (NE) 2,622 7.6 10.2°
Sets 10:20:45 0° 52° (NE) 3,555 8.3 10.4°
